Vertical_Velocity
2 3 3 3 2 1 0 -0 -1 -2 -2 -3 -1 4 7 6 8 11 15 21 22 17 7 6 6 5 2 0 0 1 1 1 1 0 -1 -1 -0 1 3 2 1 2 3 3 1 -1 -2 -0 2 2 2 1 1 1 1 1 0 0 0 1 1 1 -0 -1 -2 -1 -1 -1 -1 -1 -1 -1 -1 -1 -1 -1 -1 -1 -1 -1 -0 -0 -0 -0 0 0 0 -0 -0 -1 -1 -1 -1 -1 -1 -0 -0 -0 -0 -0 -0 -0 -0
1 2 3 4 3 1 0 -0 -1 -1 -2 -3 -1 3 6 8 10 13 16 21 21 17 10 9 4 2 4 1 1 1 1 1 0 0 -0 -1 -0 2 3 2 1 1 3 3 2 -1 -3 -1 1 2 2 1 1 1 1 1 1 0 0 1 1 1 0 -0 -1 -1 -1 -0 0 -0 -1 -1 -1 -1 -1 -1 -1 -1 -1 -0 -0 -0 -0 -0 0 0 0 -0 -0 -0 -1 -1 -1 -1 -1 -0 -0 -0 -0 -0 -0 -0 -0
1 3 4 5 4 2 0 -0 -1 -1 -2 -3 -1 2 6 9 11 14 17 19 19 16 12 10 3 -1 0 0 1 1 1 1 0 -0 -1 -1 -0 2 3 2 1 1 3 3 2 -1 -4 -3 -0 2 3 1 1 1 1 1 1 0 0 1 1 2 1 -0 -2 -2 -2 0 1 0 -1 -1 -1 -1 -1 -1 -1 -1 -0 -0 -0 -0 -0 -0 0 0 0 -0 -0 -0 -1 -1 -1 -1 -1 -1 -0 -0 -0 -0 -0 -0 -0
2 4 5 6 6 4 0 0 -1 -1 -2 -3 -1 2 7 9 12 16 19 20 18 16 13 9 2 -3 -2 -0 1 1 1 1 0 -0 -1 -1 0 2 3 2 2 1 2 3 2 -0 -4 -4 -2 1 3 2 1 1 1 1 1 1 0 1 1 2 3 0 -2 -2 -2 0 1 1 -1 -1 -1 -1 -1 -1 -1 -1 -0 -0 0 0 0 0 0 0 0 -0 -0 -0 -1 -0 -1 -0 -0 -0 -0 -0 -0 -0 -0 -0 -0
2 4 4 4 5 4 1 -0 -1 -2 -2 -2 -1 2 5 7 11 17 21 22 20 17 15 8 1 -4 -2 0 1 1 1 1 1 -0 -1 -1 0 2 3 2 2 1 1 2 2 0 -3 -4 -3 0 2 2 1 1 1 1 1 1 1 1 1 1 3 1 -1 -2 -2 0 1 0 -1 -1 -1 -1 -1 -1 -1 -1 -0 -0 0 0 0 0 0 0 0 -0 -0 -0 -0 -0 -0 -0 -0 -0 -0 -0 -0 -0 -0 -0 -0
2 3 2 1 3 4 2 -0 -2 -2 -2 -2 -2 -0 3 6 11 16 21 23 22 19 15 5 -2 -5 -1 0 1 1 1 1 1 0 -1 -1 0 2 2 2 2 1 1 2 2 1 -2 -3 -2 -0 2 1 1 1 1 1 1 1 1 1 1 1 2 1 -1 -1 -1 0 0 -0 -1 -0 -0 -1 -1 -1 -1 -0 -0 0 0 0 0 0 0 0 0 0 -0 -0 -0 -0 -0 -0 0 -0 -0 -0 -0 -0 -0 0 0
-0 1 1 -0 1 3 4 1 -1 -2 -2 -2 -3 -2 2 6 10 14 21 22 22 20 12 4 -2 -4 -1 -0 1 1 1 1 1 1 -1 -1 1 2 2 2 1 1 1 2 2 1 -0 -1 -1 -0 1 1 1 1 0 1 1 1 1 1 1 1 0 -0 -1 -1 -0 0 0 -1 -1 -0 -0 -1 -1 -1 -0 -0 0 0 0 0 0 0 0 0 0 0 -0 -0 -0 -0 -0 -0 -0 -0 -0 -0 -0 -0 -0 -0 -0
-1 -1 0 1 2 4 7 3 -0 -2 -3 -2 -3 -2 0 5 9 14 22 20 19 18 13 5 -1 -3 -2 -1 0 1 1 1 1 1 -0 -0 1 2 2 1 1 1 2 2 2 1 0 -0 -0 0 1 1 1 1 0 0 1 1 1 1 1 1 0 -1 -1 -0 0 1 0 -0 -1 -0 -0 -0 -0 -0 -0 0 0 0 0 0 1 0 0 0 0 0 -0 -0 -0 -1 -1 -0 -0 -0 -0 -0 -0 -0 -0 -0 -0
-2 -1 1 2 3 5 6 4 1 -2 -3 -2 -2 -2 0 6 11 16 21 18 17 16 9 3 -1 -3 -2 -1 0 1 1 1 1 1 0 -0 1 2 2 1 0 1 2 2 2 1 1 0 -0 0 1 1 1 1 0 0 0 1 1 1 1 1 1 -1 -1 -0 1 1 0 -0 -0 -0 -0 -0 -0 -0 0 0 1 1 0 0 1 0 0 0 0 -0 -0 -0 -0 -0 -1 -1 -1 -1 -0 -0 -0 -0 -0 -0 -0
-2 -1 1 2 3 4 6 4 1 -2 -3 -3 -2 1 4 7 11 16 21 17 17 16 8 2 -2 -3 -1 -0 1 1 1 1 1 1 0 0 1 2 2 1 0 0 1 1 1 1 1 1 0 -0 0 1 1 1 1 0 0 0 1 1 1 1 1 -1 -1 -0 1 1 0 -0 -0 -0 -0 -0 -0 0 0 0 0 0 0 0 0 0 0 0 0 -0 -0 -0 -0 -0 -0 -1 -1 -1 -0 -0 -0 -0 -0 -0 -0
-2 -1 1 2 2 3 8 10 4 -2 -3 -5 -2 3 6 7 10 15 21 19 17 15 9 3 -1 -2 -1 0 1 1 1 1 1 1 0 0 1 2 2 0 -0 0 1 1 1 1 1 1 -0 -1 -0 1 1 1 1 0 0 0 1 1 1 1 1 -1 -1 -0 1 1 0 -0 -0 -0 -0 0 -0 0 0 1 0 0 0 0 0 0 0 0 -0 -0 -0 -0 -0 -0 -0 -1 -1 -0 -0 -0 -0 -0 -0 -0 -0
-3 -1 1 2 2 2 4 10 7 1 -1 -4 -2 2 6 7 10 15 21 18 16 13 9 4 -1 -2 -1 -0 0 1 1 1 1 1 0 0 1 2 2 0 -0 -0 0 0 0 1 1 1 -0 -1 -1 -0 1 1 1 1 1 0 1 1 1 0 0 -1 -1 -0 1 0 -0 -0 -0 0 0 0 -0 0 0 1 0 0 0 0 0 0 0 0 -0 -0 -0 -0 -0 -0 -0 -0 -1 -0 -0 -0 -0 -0 -0 -0 -0
-2 -1 1 1 1 1 2 7 5 1 0 -3 -2 1 7 8 11 15 21 18 16 15 11 4 -0 -2 -1 -1 -0 0 1 1 1 0 0 0 1 2 2 0 -0 -0 -1 -1 0 1 1 1 0 -1 -1 -1 -0 1 1 1 1 1 1 1 0 0 0 -1 -1 -0 1 0 -0 -1 -0 0 0 0 0 0 0 0 0 0 0 0 0 0 0 -0 -0 -0 -0 -0 -0 -0 -0 -0 -0 -1 -0 -0 -0 -0 -0 -0 -1
-2 -1 0 1 1 1 2 7 4 -0 -2 -0 0 2 7 8 11 16 23 18 17 16 14 5 0 -1 -1 -1 -1 -0 0 1 1 0 -0 0 1 2 2 0 -0 -1 -1 -1 0 1 1 1 1 0 -0 -0 -0 1 1 1 1 1 1 1 0 0 0 -0 -0 0 1 0 -0 -1 -1 -0 0 0 0 0 0 0 0 0 0 0 0 0 0 0 -0 -0 -0 -0 -0 -0 -0 -0 -0 -0 -0 -0 -0 -0 -0 -0 -1
-0 0 1 2 3 3 2 2 1 1 1 2 2 1 3 6 10 15 22 19 17 16 17 6 1 -1 -1 -1 -1 -1 0 0 0 0 -0 0 1 2 2 1 -0 -1 -2 -1 0 1 0 0 0 1 1 1 1 1 1 1 1 1 1 1 0 0 0 -0 0 0 1 0 -0 -1 -1 -0 0 0 0 0 0 0 0 0 0 0 0 0 0 0 0 -0 -0 -0 -0 -0 -0 -0 -0 -0 -0 -0 -0 -0 -0 -1 -1
1 2 3 3 3 3 1 1 1 2 1 2 1 0 -1 5 7 10 17 17 17 16 15 6 1 -1 -2 -2 -2 -1 -1 -0 -0 -0 -0 -0 1 2 2 1 0 -1 -1 -0 1 1 -0 -1 -0 1 1 1 1 1 1 1 1 1 1 1 1 0 0 0 0 1 1 0 -0 -1 -1 -0 0 0 -0 0 0 1 1 0 0 0 0 0 0 0 0 -0 -0 -0 -0 -0 -0 -0 -0 -0 -0 -0 -0 -0 -0 -0 -1
1 2 3 3 3 2 -0 2 3 3 1 0 0 -1 -2 4 5 6 11 14 16 16 13 6 1 -1 -2 -2 -3 -2 -2 -1 -0 -0 0 0 2 3 2 1 0 -0 -1 0 1 1 -0 -1 -1 0 1 1 1 1 1 1 1 1 1 1 1 0 0 0 0 0 1 0 -0 -1 -1 -0 0 0 -0 0 0 1 0 0 0 0 0 0 0 0 0 -0 -0 -0 -0 0 -0 -0 -0 -0 -0 -0 -0 -0 -0 -0 -0
0 1 1 2 1 0 -1 2 6 6 1 1 1 -0 -1 4 6 6 8 12 14 15 12 7 2 -1 -2 -3 -4 -3 -2 -1 -0 1 1 1 3 4 1 1 1 0 0 1 1 1 -0 -1 -1 0 1 1 1 1 1 1 1 1 1 1 1 0 0 0 -0 0 0 0 -0 -0 -1 -0 0 0 -0 0 0 1 0 0 0 1 0 -0 0 0 0 -0 -0 -0 0 0 0 0 0 -0 -0 -0 -0 -0 -0 -0 -0
-1 -1 -1 -1 -0 -1 -2 2 7 8 4 4 3 2 1 4 5 5 8 11 13 14 13 7 2 -1 -3 -4 -4 -4 -2 -1 1 1 1 2 3 3 2 1 1 1 0 0 1 1 0 -1 -0 0 1 1 1 1 1 1 1 0 0 1 1 0 0 -0 -0 -0 0 0 -0 -1 -1 -0 0 -0 -0 0 0 1 0 0 1 1 0 0 0 0 0 -0 -0 0 0 0 0 0 0 0 0 -0 -0 -0 -0 0 0
-1 -2 -2 -2 -1 -1 -1 1 6 8 6 5 4 3 3 3 4 5 6 9 19 26 18 8 2 -1 -3 -5 -5 -4 -2 -0 1 1 1 2 3 3 3 3 2 2 1 1 1 1 0 -0 -0 0 1 1 1 1 1 1 0 0 0 1 1 0 -0 -0 -0 -0 0 0 -0 -1 -1 -0 -0 -0 -0 0 1 1 1 1 1 1 0 -0 0 0 0 0 0 0 1 1 1 1 1 0 0 0 0 -0 -0 0 0
-0 -1 -3 -2 -2 -1 -1 0 4 6 5 5 4 4 4 4 4 4 2 6 27 41 26 9 1 -2 -4 -5 -5 -3 -2 -0 0 1 0 3 3 3 3 3 3 2 2 1 1 1 0 0 0 0 1 1 1 1 1 1 0 0 0 0 1 0 -0 -0 -0 -0 -0 0 -0 -0 -0 -0 -0 -0 -0 0 1 1 1 1 1 1 0 -0 0 0 0 0 0 1 1 1 1 1 1 0 0 0 0 0 0 0 0
1 0 -2 -2 -1 -0 0 1 4 7 5 6 5 5 4 6 6 4 1 4 22 36 29 9 -0 -3 -4 -4 -3 -2 -1 -0 0 1 1 1 1 2 3 3 3 2 2 2 2 1 1 0 0 1 1 1 1 1 1 1 0 -0 -0 0 0 0 0 -0 -0 -0 -0 0 -0 -0 -0 -0 -0 -0 -0 0 0 1 1 1 1 0 -0 -0 0 0 0 0 0 1 1 1 1 1 1 0 0 0 0 0 0 0 0
2 1 -0 -1 -1 -0 2 2 4 6 5 7 7 4 2 5 6 5 4 4 12 23 30 9 -0 -2 -3 -2 -2 -2 -1 0 0 1 1 1 0 0 2 2 2 2 2 2 2 1 1 1 1 1 1 1 1 1 1 1 0 -0 -0 0 0 0 0 -0 -0 -0 -0 -0 -0 -0 -0 0 0 -0 -0 0 0 1 1 1 0 0 -1 0 0 0 0 0 1 1 1 1 1 1 1 1 1 1 1 1 1 0 0
2 2 -0 -1 -1 1 2 2 4 5 3 7 7 4 1 5 4 3 9 12 11 13 24 8 1 -0 -2 -1 -1 -0 1 1 1 1 1 1 -0 -0 2 2 2 1 2 2 2 2 1 1 1 1 1 1 1 1 1 1 0 0 -0 0 0 0 0 -0 -0 -0 0 -0 -0 -0 -0 0 0 0 -0 -0 0 0 1 1 0 0 -1 0 0 0 0 0 1 1 1 1 1 1 1 0 0 1 1 1 1 1 0
2 1 -1 -1 2 3 2 1 3 6 3 3 5 5 1 6 5 3 6 11 7 6 17 7 2 1 -0 1 1 1 2 2 2 2 2 0 -1 -1 2 2 2 1 2 2 3 2 1 1 1 1 0 1 1 1 1 1 0 0 0 0 0 1 0 -0 -1 -0 -0 -0 -0 -0 -0 0 0 0 -1 -0 0 0 1 1 0 0 -0 0 0 0 0 1 1 1 1 1 1 1 1 1 1 1 1 1 1 1 1
1 1 1 2 4 4 2 1 4 7 5 2 2 3 2 3 3 2 -1 2 0 2 13 8 4 2 1 2 2 1 2 2 2 2 1 -0 -1 -1 1 2 1 1 1 2 2 2 1 1 1 1 0 0 1 1 1 1 1 0 0 0 0 1 1 -0 -1 -1 -1 -0 -0 -0 -0 0 0 -0 -0 0 0 0 0 0 0 0 1 0 0 1 1 1 1 1 1 1 1 1 1 1 1 1 1 1 1 1 1
2 4 3 4 3 3 2 1 4 7 4 2 3 4 3 2 3 4 5 3 0 2 14 18 10 1 0 1 1 2 2 2 2 2 1 -0 -1 -1 1 1 1 1 1 2 2 1 0 0 0 0 -0 0 1 1 1 1 1 0 0 0 0 1 1 0 -1 -1 -1 -0 0 0 -0 0 0 -0 -0 0 1 1 0 0 0 0 1 0 1 1 1 1 1 1 1 1 1 1 1 1 1 1 1 0 0 0 0
5 5 3 2 1 1 1 -1 2 5 4 3 4 5 3 1 5 11 15 14 9 5 10 23 18 6 1 0 1 2 3 2 2 2 1 0 0 0 1 1 1 1 1 2 1 1 -0 0 0 0 0 1 1 1 1 1 0 0 0 0 0 0 1 0 -0 -1 -1 -0 0 0 -0 0 0 0 0 1 1 1 0 0 0 0 0 1 1 1 1 1 1 1 1 1 1 1 1 1 1 1 1 0 0 0 0
7 5 2 -0 0 0 -1 -3 2 6 6 4 6 7 4 2 4 9 14 14 7 2 8 20 24 19 6 2 1 3 3 2 1 1 1 1 1 1 2 2 1 1 1 2 1 0 -0 0 0 0 1 1 1 1 1 0 0 0 0 0 0 1 1 0 -1 -1 -1 0 0 0 -0 0 0 1 1 1 0 0 0 0 0 0 0 0 1 1 1 1 1 1 1 1 1 1 1 1 1 1 1 0 0 0 0
7 3 1 -1 -0 0 -1 -1 3 6 6 4 6 7 6 5 5 5 6 7 3 1 10 19 23 22 13 4 2 2 2 2 1 1 2 2 2 2 2 2 1 1 2 2 1 0 0 0 0 1 1 1 1 1 1 0 -0 -0 0 0 0 1 1 0 -0 -1 -0 1 0 -0 0 0 0 0 1 1 0 0 0 0 0 0 0 1 1 1 1 1 1 1 1 1 1 1 1 1 1 1 1 0 0 0 0
4 2 -0 -0 1 2 4 3 4 5 5 5 8 11 7 7 6 5 4 9 6 6 16 24 23 17 14 7 3 2 2 2 1 1 2 2 2 2 2 2 2 2 2 1 1 0 -0 -0 -0 0 1 2 2 1 1 -0 -0 -0 0 0 0 0 1 0 -0 -1 -0 -0 -0 -0 0 0 0 0 1 1 0 -0 -0 0 0 0 0 1 1 1 1 1 1 1 1 1 1 1 1 1 1 1 1 1 1 0 0
4 2 0 0 2 3 4 2 4 6 5 9 15 17 10 5 4 5 7 9 9 11 20 23 19 13 13 10 5 2 2 1 0 0 1 1 1 1 1 2 2 2 2 1 1 -0 -1 -1 -1 -0 1 2 2 1 1 0 -0 0 0 0 1 1 1 0 -0 -0 -1 -1 -0 -0 0 0 0 0 1 1 0 -0 -0 0 1 1 1 1 1 1 1 2 2 1 1 1 1 1 1 1 1 1 1 1 1 0 0
7 4 1 0 1 2 2 -0 1 4 9 15 19 19 13 7 3 3 5 7 7 8 10 16 15 13 12 12 7 3 3 1 -0 -1 0 1 0 -0 0 2 2 2 2 2 0 -1 -1 -1 -1 -1 -0 1 2 2 1 0 0 0 0 1 1 1 1 0 -0 -0 -0 -0 -0 -0 0 0 0 0 1 1 0 -0 -0 0 0 1 1 1 1 1 1 2 2 2 1 1 1 1 1 1 1 1 1 1 1 0 -0
8 6 3 2 1 1 2 -1 -3 2 17 18 18 17 14 8 4 2 2 3 4 4 5 10 11 10 11 14 10 5 3 1 -0 -1 -1 -1 -1 -1 1 2 2 2 2 1 0 -1 -1 -0 -1 -1 -1 0 1 2 1 1 1 1 1 1 1 1 1 0 -0 -0 -0 -1 -1 -0 -0 -0 0 0 1 0 -0 -0 -0 0 0 1 1 1 1 1 1 2 2 2 2 1 1 1 1 1 1 1 1 1 1 0 -0
7 6 4 3 3 4 5 1 -1 5 25 22 19 15 13 8 6 4 3 3 3 2 2 1 1 3 10 18 17 11 4 1 0 -0 -1 -2 -2 -1 1 1 2 2 2 1 0 -0 0 1 -0 -1 -1 -0 0 1 1 1 1 1 1 1 1 1 1 0 -0 -0 -1 -1 -1 -1 -0 -0 -0 0 0 -0 -0 -0 -0 0 1 1 1 1 1 1 1 1 2 2 2 1 1 1 1 1 1 1 1 0 0 0 0
2 3 4 4 6 7 6 -0 0 8 26 24 20 15 10 8 7 8 7 7 5 3 1 0 -0 1 7 17 20 16 6 3 2 1 -2 -4 -4 -2 0 0 1 2 2 2 1 1 1 1 -0 -1 -1 -1 -0 1 1 1 2 1 1 1 1 1 1 0 -0 -0 -1 -1 -1 -1 -1 -0 -0 -0 0 0 0 0 0 0 1 1 2 2 1 1 1 1 2 2 2 1 1 1 1 1 1 1 1 0 0 0 0
1 4 5 5 5 5 4 -2 -1 7 25 26 22 16 11 8 8 10 11 11 8 5 1 2 2 3 5 10 12 12 7 5 4 1 -2 -4 -4 -2 -1 -1 -0 1 2 1 1 1 1 0 -0 -0 0 -1 -0 1 1 2 2 2 1 1 1 1 1 0 -0 -0 -0 -0 -1 -1 -1 -0 -0 -0 0 0 1 1 1 1 1 1 2 2 2 1 1 1 2 2 2 1 1 1 1 1 1 1 1 0 0 0 -0
4 7 6 5 4 3 2 -3 -2 6 22 27 24 19 13 9 9 11 13 12 10 7 4 4 4 5 6 6 6 6 6 7 6 3 -1 -3 -3 -2 -2 -3 -2 0 1 1 2 2 1 0 2 2 0 -0 1 2 1 2 2 1 1 1 1 1 1 0 0 0 0 -0 -0 -0 -0 -0 -0 -0 -0 0 0 1 1 1 1 2 2 2 1 1 1 1 2 2 2 1 1 1 1 1 1 1 1 1 0 0 -0
4 5 2 2 3 1 -3 -5 -3 4 16 25 26 21 15 11 10 11 13 12 10 8 8 5 5 7 8 5 3 4 6 8 8 6 2 0 -1 -2 -4 -3 -2 -1 -1 0 2 2 1 2 5 7 1 -1 0 1 0 2 2 1 1 1 1 1 1 1 0 0 0 -0 0 0 -0 -0 -0 -0 -0 0 0 0 1 1 1 2 1 1 1 1 1 1 2 1 1 1 1 1 1 1 0 0 1 1 1 0 -0
1 1 -1 2 2 1 -5 -5 -2 4 14 23 25 22 19 12 10 11 13 11 10 9 9 7 7 8 8 3 2 2 4 7 8 7 5 3 1 -1 -3 -2 -2 -2 -1 -1 0 1 0 3 7 9 3 -1 -1 -1 0 1 2 1 1 1 1 1 1 1 0 0 -0 0 0 -0 -1 -1 -0 -0 -0 0 0 0 0 1 1 1 1 1 1 1 1 1 1 1 1 1 1 1 1 1 0 0 0 1 1 1 0
0 1 1 2 2 1 -2 -3 -0 7 17 22 23 22 21 14 9 8 9 9 10 10 11 10 9 8 6 0 -0 2 3 4 6 7 5 4 3 1 -1 -2 -2 -2 -2 -1 -1 -1 -0 4 7 7 3 1 -0 -0 0 1 1 1 1 1 1 1 1 1 0 0 -0 0 0 -1 -2 -1 0 0 0 1 1 1 0 0 1 1 1 1 1 1 1 1 1 1 1 1 1 1 1 1 1 0 0 0 1 1 0
2 3 3 1 -1 -2 -1 -1 4 11 18 20 20 21 24 18 12 6 5 7 9 12 13 11 8 5 2 -2 -1 3 5 4 5 7 6 5 4 2 -1 -1 -2 -2 -1 -2 -2 -2 -1 3 4 4 1 1 1 1 -0 -0 0 0 1 1 1 1 1 0 0 -0 0 -0 -1 -1 -1 -0 0 1 1 1 1 1 0 0 0 0 1 1 1 1 1 1 1 1 1 1 1 1 0 1 1 1 0 0 0 0 0
4 5 6 1 -3 -4 -4 1 6 10 13 16 18 21 28 27 20 12 5 4 7 11 12 9 5 2 -0 -2 0 4 8 6 5 5 6 7 6 3 -0 -1 -1 -1 -0 -1 -1 -1 -1 1 1 1 -0 0 1 0 -0 0 0 0 0 0 0 1 1 0 0 0 0 -0 -1 -1 -1 0 0 1 1 1 1 1 0 -0 -0 0 0 1 1 1 1 1 1 1 1 2 1 1 0 1 1 1 1 0 0 0 0
5 5 6 -0 -1 0 -0 2 4 5 6 12 14 19 29 35 30 20 8 4 5 7 10 7 4 2 1 -0 2 5 8 7 5 5 7 9 7 3 -1 -1 -1 -0 1 0 -0 -0 -0 -0 -0 -0 -0 -0 0 0 1 1 1 1 -0 0 1 1 1 0 0 0 0 -0 -1 -1 -1 -0 -0 0 1 1 1 1 -0 -0 -0 -0 0 1 1 1 1 1 1 1 2 2 1 1 1 1 1 1 1 0 0 0 0
5 5 5 3 4 6 5 3 2 2 4 8 11 16 27 37 36 27 13 7 5 5 7 7 6 6 8 6 5 5 6 5 5 6 10 11 8 3 -0 -1 -1 -0 0 -0 -0 0 1 0 0 0 1 0 1 1 1 2 1 1 0 1 1 1 1 1 1 1 0 -1 -1 -1 -1 -1 -1 -1 0 1 1 1 -0 -1 -1 -1 -0 0 1 1 1 1 1 1 1 1 1 1 1 1 1 1 1 0 -0 -0 0
5 6 5 6 7 6 4 3 5 6 6 9 10 12 20 32 37 34 22 14 10 7 6 8 10 13 17 14 10 6 4 2 2 5 11 12 9 5 2 1 -1 -2 -4 -4 -3 -1 0 0 1 1 1 1 1 1 2 2 2 1 2 1 0 0 1 1 1 1 0 -1 -2 -2 -2 -3 -2 -1 -0 0 1 1 0 -0 -1 -1 -0 0 1 1 1 1 1 1 1 1 1 1 1 1 1 1 1 0 -0 -0 0
5 6 4 2 2 3 3 5 7 7 3 8 9 10 13 25 34 37 31 26 22 17 11 13 16 20 23 19 12 5 0 -1 -1 2 8 10 9 6 4 2 -1 -4 -8 -8 -6 -4 -2 -1 0 1 1 1 1 2 2 2 3 3 2 1 0 1 1 1 1 1 -0 -1 -2 -2 -3 -3 -1 0 0 1 1 1 0 -1 -1 -1 -0 0 1 1 1 1 1 1 1 1 1 1 1 1 1 1 0 -0 -0 -0 -0
4 4 1 -1 1 3 4 6 6 4 -1 3 6 9 10 19 28 34 34 33 31 27 18 17 19 23 26 20 9 0 -4 -3 -1 1 6 9 8 5 5 5 3 -1 -6 -7 -7 -6 -5 -2 -1 0 1 2 2 2 2 3 3 4 3 2 1 1 0 1 1 0 -1 -1 -1 -1 -2 -1 -0 1 2 1 1 0 0 -0 -1 -1 -0 1 1 1 1 1 1 1 1 1 1 1 1 1 1 1 0 0 -0 -0 -0
3 3 -0 2 2 2 3 6 6 3 -2 -1 3 7 8 15 22 28 30 28 28 27 24 19 19 23 28 19 7 -3 -6 -2 0 3 7 10 7 4 4 7 6 2 -3 -4 -5 -5 -3 -1 0 1 1 2 1 1 2 3 4 4 3 3 2 2 1 1 1 0 0 -0 -0 0 -0 1 1 1 1 1 1 1 1 0 -0 -1 0 1 1 1 1 1 1 1 1 1 1 1 1 1 1 0 0 0 0 0 -0
2 2 2 5 4 1 3 5 6 4 -1 -2 1 4 7 11 16 20 21 16 16 19 27 23 21 22 27 19 7 -4 -6 -2 2 5 10 10 7 3 1 2 1 0 -2 -3 -3 -2 -1 -0 1 1 1 1 1 1 2 3 4 4 4 4 3 2 2 1 1 1 1 1 1 0 0 1 2 2 1 1 2 2 1 1 -0 -0 -0 1 1 1 1 1 1 1 1 1 1 1 1 1 1 1 0 0 0 -0 -0
4 0 1 5 4 1 1 4 5 4 -1 -2 0 5 8 10 12 14 14 7 6 11 24 24 22 21 22 18 7 -3 -4 -0 3 7 9 7 6 4 1 -0 0 1 1 -1 -1 -2 -3 -2 -2 -1 -0 1 1 2 2 2 3 3 3 3 3 3 2 2 2 2 2 2 1 1 1 1 1 2 3 3 3 2 1 0 -0 -1 -0 1 1 2 2 1 1 1 1 0 1 1 1 1 1 0 0 0 -0 -0 -1
5 2 2 7 6 3 1 6 7 4 -3 -3 -1 3 5 6 8 10 12 8 6 9 19 23 21 18 18 15 8 2 1 3 5 7 8 7 8 8 8 9 8 4 -1 -1 -2 -4 -4 -3 -4 -4 -1 -1 0 1 1 1 1 1 1 2 3 3 3 3 2 2 2 2 2 1 1 1 1 2 2 2 2 2 1 -0 -1 -1 -1 0 1 2 2 2 1 1 0 0 0 1 1 1 1 0 -0 -0 -1 -1 -0
3 3 3 6 7 6 4 6 6 3 -3 -4 -3 -1 0 3 6 8 10 11 10 10 16 23 21 16 15 14 11 8 5 7 8 8 10 11 10 9 9 8 3 -3 -6 -3 -4 -7 -5 -7 -7 -6 -4 -4 -3 -2 -2 -1 -0 -1 -1 1 1 2 2 3 2 2 2 2 2 1 1 1 1 2 2 2 2 1 -1 -1 -2 -2 -1 0 1 2 2 1 1 0 0 0 0 1 1 1 0 -0 -1 -1 -1 -0 0
5 3 2 3 5 6 3 4 4 3 -2 -6 -6 -3 1 2 4 7 11 12 11 10 14 25 26 21 14 14 12 10 7 10 11 11 10 8 7 5 2 -1 -3 -2 2 5 3 -3 -9 -11 -9 -7 -7 -3 -2 -1 -1 -1 -1 -2 -1 -1 -1 -0 1 2 2 2 2 1 1 1 1 1 2 2 3 2 1 0 -1 -2 -2 -2 -1 -0 1 1 2 1 1 0 0 0 1 1 1 1 0 -0 -0 -0 0 0 1
11 6 2 2 3 5 6 11 13 10 -1 -6 -5 -1 -0 2 5 8 12 11 8 6 8 22 26 23 14 12 11 10 9 10 12 12 9 6 4 3 1 1 4 7 9 9 4 -3 -10 -1 4 5 2 4 4 3 1 0 -0 -1 -2 -2 -2 -1 -0 1 1 2 1 1 1 1 2 2 2 2 2 2 1 1 -0 -1 -2 -2 -1 0 1 1 1 1 0 0 1 1 1 1 1 1 0 0 0 0 0 1 1
14 10 4 3 3 4 9 12 11 8 3 -2 -3 -3 -3 2 6 10 13 9 5 1 -1 11 17 18 12 9 9 10 11 12 12 11 11 9 7 6 5 4 2 1 -1 -4 -8 -8 -1 10 16 16 8 4 3 2 -1 -1 -1 -1 -2 -3 -3 -3 -2 -0 0 1 1 2 2 3 2 2 2 2 1 1 1 1 -0 -1 -1 -1 0 1 1 1 1 -0 -0 0 1 1 1 1 1 1 1 1 1 0 -0 0 1
13 11 9 10 7 4 4 8 9 8 6 3 -2 -5 -3 3 8 11 11 7 2 -2 -3 3 7 9 8 6 6 8 12 13 12 11 12 12 9 4 -0 -1 -2 -3 -1 -4 -2 3 9 13 15 11 -4 -4 -1 0 -4 -2 -1 -1 -3 -3 -3 -2 -1 1 1 2 2 3 3 3 3 3 2 2 1 1 1 1 -0 -0 -0 -0 1 1 1 1 -0 -0 -0 0 1 1 1 1 1 1 1 1 1 -0 -0 -0 0
12 12 12 11 6 1 0 4 8 11 12 6 -0 -4 -2 2 6 7 7 4 2 1 1 3 4 3 2 3 5 8 13 16 16 16 16 17 12 4 -5 -4 -1 4 10 11 14 17 16 16 11 2 -11 0 3 2 -1 0 -0 -1 -2 -2 -1 0 2 3 4 4 4 3 3 3 3 3 2 2 1 2 2 1 1 0 0 0 1 1 1 0 -0 -0 0 1 1 1 1 1 1 1 1 1 0 -0 -0 -0 -0
8 10 10 5 1 -2 -2 2 7 11 11 3 -0 -1 1 2 2 3 3 2 2 3 6 6 6 4 2 2 7 14 21 23 24 24 24 22 16 7 -1 -1 1 2 2 3 6 9 12 12 4 -2 1 8 5 1 1 -1 -2 -2 -2 -1 0 1 2 4 4 4 4 4 3 3 3 3 3 3 2 2 2 2 1 1 0 0 -0 0 1 1 1 1 1 1 2 2 2 1 1 1 0 0 0 0 1 0 0
3 6 8 3 -1 -3 -2 2 6 9 8 2 1 3 5 1 -1 -1 0 -1 -1 2 5 7 8 8 7 7 12 20 29 29 29 28 28 25 19 12 6 6 5 3 1 -1 -1 1 6 4 3 4 10 4 1 -0 2 -0 -1 -1 -1 0 1 1 1 1 1 2 2 3 3 3 2 2 3 3 3 3 2 2 1 0 -0 -1 -0 1 2 2 1 1 1 2 2 2 1 1 0 -0 -0 0 1 1 1 1 0
-2 2 5 2 -2 -3 -2 2 6 8 5 -1 -1 2 6 -0 -3 -4 -1 -2 -1 1 4 6 7 9 10 12 15 19 23 22 23 23 23 23 21 17 13 12 11 10 8 6 6 7 7 4 3 4 4 2 3 4 2 1 1 3 3 1 1 0 -0 -1 -2 -1 -1 1 1 2 2 2 2 3 3 2 2 1 0 -0 -1 -1 1 2 2 2 2 2 2 2 2 2 1 -0 -0 -0 0 1 1 1 1 1 0
Height
5792 5795 5798 5800 5803 5806 5809 5811 5814 5816 5818 5820 5822 5824 5826 5828 5829 5830 5833 5834 5835 5837 5838 5839 5841 5843 5844 5846 5848 5850 5852 5853 5855 5857 5858 5860 5862 5864 5866 5867 5869 5871 5872 5873 5873 5874 5875 5877 5878 5879 5880 5881 5883 5883 5885 5886 5887 5888 5888 5890 5891 5891 5892 5893 5893 5894 5894 5895 5896 5896 5897 5897 5898 5898 5899 5899 5900 5900 5901 5901 5902 5902 5903 5903 5904 5904 5905 5905 5906 5906 5907 5907 5908 5908 5908 5908 5909 5909 5909 5909 5910 5910 5910
5788 5791 5793 5797 5799 5803 5805 5808 5811 5813 5815 5817 5818 5821 5823 5825 5826 5828 5830 5831 5833 5833 5835 5836 5837 5839 5843 5844 5846 5848 5850 5852 5853 5855 5857 5858 5860 5863 5864 5866 5867 5869 5871 5872 5872 5872 5873 5875 5877 5878 5879 5880 5881 5882 5883 5884 5885 5886 5887 5889 5890 5891 5891 5892 5892 5892 5893 5894 5895 5895 5896 5896 5897 5897 5898 5898 5899 5899 5900 5900 5901 5902 5902 5903 5903 5903 5904 5904 5905 5905 5906 5906 5907 5907 5908 5908 5908 5908 5909 5909 5909 5909 5910
5784 5787 5790 5793 5796 5799 5802 5805 5808 5810 5812 5814 5815 5818 5820 5822 5823 5825 5827 5828 5829 5831 5833 5833 5835 5838 5841 5842 5844 5846 5848 5849 5851 5853 5855 5857 5859 5861 5862 5864 5866 5868 5869 5870 5870 5871 5872 5873 5875 5877 5878 5879 5880 5881 5882 5883 5884 5885 5886 5888 5889 5890 5891 5892 5891 5891 5892 5893 5894 5894 5895 5895 5896 5896 5897 5898 5898 5899 5899 5900 5900 5901 5901 5902 5902 5903 5903 5904 5904 5905 5905 5906 5906 5906 5907 5907 5908 5908 5908 5909 5909 5909 5909
5780 5783 5786 5789 5792 5795 5798 5801 5804 5807 5809 5811 5813 5815 5817 5819 5821 5823 5824 5825 5826 5828 5830 5831 5832 5834 5837 5840 5842 5844 5846 5848 5849 5851 5853 5854 5857 5859 5861 5862 5864 5866 5867 5868 5869 5870 5870 5872 5874 5876 5877 5878 5879 5880 5881 5882 5883 5884 5885 5886 5888 5889 5889 5889 5890 5890 5891 5892 5893 5893 5894 5894 5895 5895 5896 5897 5897 5898 5898 5899 5899 5900 5901 5901 5902 5902 5903 5903 5904 5904 5905 5905 5906 5906 5907 5907 5907 5908 5908 5908 5908 5909 5909
5776 5779 5782 5785 5788 5791 5794 5797 5800 5803 5806 5808 5810 5812 5814 5816 5818 5820 5822 5823 5824 5826 5828 5829 5829 5831 5834 5838 5840 5842 5844 5846 5847 5849 5851 5853 5855 5857 5859 5860 5862 5864 5865 5867 5868 5868 5869 5870 5872 5874 5876 5877 5878 5878 5880 5881 5882 5883 5884 5885 5886 5888 5888 5888 5888 5889 5890 5891 5892 5892 5893 5893 5894 5894 5895 5896 5896 5897 5898 5898 5899 5899 5900 5900 5901 5902 5902 5903 5903 5903 5904 5905 5905 5906 5906 5906 5907 5907 5908 5908 5908 5908 5909
5772 5775 5777 5780 5784 5788 5790 5793 5796 5799 5802 5805 5807 5809 5812 5813 5815 5817 5819 5820 5822 5824 5826 5826 5827 5829 5832 5835 5838 5840 5842 5844 5845 5847 5849 5851 5853 5855 5857 5859 5860 5862 5863 5865 5866 5867 5868 5869 5871 5873 5874 5875 5876 5877 5878 5879 5880 5882 5883 5883 5885 5886 5887 5887 5888 5888 5889 5890 5891 5891 5892 5892 5893 5893 5894 5895 5895 5896 5897 5897 5898 5898 5899 5900 5900 5901 5901 5902 5903 5903 5903 5904 5905 5905 5906 5906 5906 5907 5907 5907 5908 5908 5908
5767 5770 5773 5777 5780 5784 5787 5790 5793 5796 5799 5802 5804 5806 5808 5811 5813 5815 5817 5818 5820 5822 5823 5823 5824 5827 5830 5833 5835 5838 5840 5842 5843 5845 5847 5849 5851 5853 5855 5857 5858 5860 5862 5863 5865 5866 5867 5868 5869 5871 5873 5874 5875 5876 5877 5878 5879 5880 5881 5882 5883 5885 5885 5885 5886 5887 5888 5889 5889 5890 5891 5891 5892 5892 5893 5893 5894 5895 5896 5896 5897 5898 5898 5899 5899 5900 5901 5901 5902 5902 5903 5903 5904 5904 5905 5905 5906 5906 5906 5907 5907 5908 5908
5763 5766 5769 5773 5777 5781 5784 5787 5789 5793 5795 5798 5801 5803 5805 5808 5810 5813 5815 5816 5818 5819 5820 5821 5822 5825 5828 5830 5833 5835 5838 5840 5842 5843 5845 5847 5849 5852 5853 5855 5857 5858 5860 5862 5863 5864 5866 5867 5868 5870 5871 5873 5874 5875 5876 5877 5878 5879 5880 5881 5882 5883 5883 5883 5884 5886 5887 5888 5888 5889 5889 5890 5891 5891 5892 5893 5893 5894 5895 5895 5896 5897 5898 5898 5899 5899 5900 5901 5901 5902 5902 5903 5903 5904 5904 5905 5905 5905 5906 5906 5907 5907 5907
5758 5762 5765 5769 5773 5777 5781 5783 5786 5789 5792 5795 5798 5800 5803 5805 5808 5810 5813 5815 5817 5818 5818 5819 5820 5823 5825 5828 5831 5833 5835 5838 5840 5842 5843 5845 5848 5850 5852 5853 5855 5857 5858 5860 5861 5863 5864 5865 5867 5868 5870 5871 5873 5873 5874 5875 5876 5878 5879 5880 5881 5882 5882 5882 5883 5885 5886 5886 5887 5888 5888 5889 5890 5890 5891 5892 5892 5893 5894 5894 5895 5896 5897 5897 5898 5898 5899 5900 5900 5901 5901 5902 5903 5903 5903 5904 5904 5905 5905 5905 5906 5906 5907
5753 5757 5761 5765 5769 5773 5777 5781 5783 5786 5789 5792 5795 5798 5800 5803 5805 5808 5812 5813 5815 5816 5816 5816 5818 5820 5823 5826 5828 5831 5833 5836 5838 5840 5842 5843 5846 5848 5849 5851 5853 5855 5857 5858 5859 5861 5862 5863 5865 5867 5868 5870 5871 5872 5873 5874 5875 5876 5877 5878 5880 5882 5882 5881 5882 5883 5884 5885 5886 5887 5887 5888 5889 5889 5890 5891 5891 5892 5893 5893 5894 5895 5896 5896 5897 5898 5898 5899 5900 5900 5901 5901 5902 5902 5903 5903 5903 5904 5904 5905 5905 5905 5906
5749 5753 5757 5761 5765 5769 5773 5777 5780 5783 5786 5789 5792 5795 5797 5799 5802 5805 5809 5811 5813 5814 5813 5813 5815 5818 5821 5823 5826 5828 5831 5833 5836 5838 5840 5842 5844 5846 5848 5849 5851 5853 5854 5856 5858 5859 5861 5862 5863 5865 5867 5868 5869 5871 5872 5873 5874 5875 5876 5877 5879 5880 5881 5881 5882 5883 5883 5884 5885 5886 5886 5887 5888 5888 5889 5890 5891 5891 5892 5893 5893 5894 5895 5895 5896 5897 5898 5898 5899 5899 5900 5900 5901 5901 5902 5902 5903 5903 5904 5904 5904 5905 5905
5744 5749 5753 5757 5761 5765 5768 5773 5777 5780 5783 5785 5788 5792 5794 5797 5799 5803 5806 5809 5812 5812 5811 5811 5813 5816 5818 5821 5824 5826 5829 5831 5834 5836 5838 5840 5842 5844 5846 5847 5849 5851 5853 5854 5856 5858 5859 5860 5862 5863 5865 5867 5868 5869 5870 5871 5873 5873 5875 5876 5877 5878 5880 5880 5881 5881 5883 5883 5884 5884 5885 5886 5887 5888 5888 5889 5890 5890 5891 5892 5893 5893 5894 5895 5895 5896 5897 5898 5898 5898 5899 5900 5900 5901 5901 5902 5902 5903 5903 5903 5903 5904 5904
5739 5744 5748 5753 5757 5761 5764 5769 5773 5776 5779 5782 5784 5788 5791 5794 5797 5800 5804 5807 5809 5810 5808 5809 5811 5813 5816 5818 5821 5824 5827 5829 5832 5834 5836 5838 5841 5843 5844 5845 5847 5848 5850 5852 5854 5856 5857 5859 5860 5862 5863 5865 5867 5868 5869 5870 5871 5872 5873 5874 5875 5877 5878 5879 5880 5880 5881 5882 5883 5883 5884 5885 5886 5887 5887 5888 5889 5889 5890 5891 5892 5893 5893 5894 5894 5895 5896 5897 5897 5898 5898 5899 5899 5900 5900 5901 5901 5902 5902 5902 5903 5903 5903
5735 5740 5745 5749 5753 5757 5760 5766 5770 5773 5776 5778 5782 5785 5788 5791 5794 5798 5803 5806 5807 5808 5807 5807 5809 5811 5813 5816 5819 5821 5824 5827 5829 5832 5833 5836 5839 5841 5842 5843 5845 5847 5848 5850 5853 5854 5856 5857 5859 5860 5862 5863 5865 5866 5868 5869 5870 5871 5872 5873 5874 5875 5876 5877 5878 5879 5880 5881 5882 5882 5883 5884 5885 5886 5887 5887 5888 5888 5889 5890 5891 5892 5892 5893 5894 5894 5895 5896 5896 5897 5898 5898 5898 5899 5899 5900 5900 5901 5901 5902 5902 5902 5903
5731 5736 5741 5745 5749 5753 5757 5762 5766 5769 5772 5776 5779 5782 5785 5788 5791 5796 5801 5804 5805 5805 5805 5805 5806 5808 5811 5813 5816 5819 5822 5824 5827 5829 5831 5834 5837 5838 5839 5841 5843 5844 5846 5848 5851 5853 5854 5855 5857 5859 5860 5862 5863 5865 5866 5867 5868 5869 5870 5871 5873 5873 5875 5875 5877 5878 5879 5879 5880 5881 5882 5883 5884 5884 5885 5886 5887 5888 5888 5889 5890 5891 5891 5892 5893 5893 5894 5895 5896 5896 5897 5897 5898 5898 5898 5899 5899 5900 5900 5901 5901 5901 5902
5727 5732 5737 5741 5745 5749 5753 5758 5763 5766 5769 5773 5776 5779 5782 5786 5789 5793 5797 5800 5802 5802 5802 5802 5803 5806 5808 5811 5813 5816 5819 5822 5824 5827 5829 5831 5834 5837 5837 5839 5840 5842 5844 5847 5849 5851 5852 5853 5855 5857 5858 5860 5862 5863 5864 5866 5867 5868 5869 5870 5871 5872 5873 5874 5875 5877 5878 5878 5879 5880 5881 5882 5883 5883 5884 5885 5886 5887 5888 5888 5889 5890 5890 5891 5892 5893 5893 5894 5895 5895 5896 5896 5897 5897 5898 5898 5899 5899 5899 5900 5900 5901 5901
5722 5728 5733 5737 5741 5745 5749 5755 5760 5763 5766 5769 5773 5776 5778 5783 5786 5789 5793 5796 5798 5799 5799 5800 5801 5803 5806 5808 5811 5814 5817 5819 5822 5824 5827 5829 5832 5834 5835 5837 5838 5840 5843 5845 5847 5849 5850 5852 5853 5855 5857 5858 5860 5862 5863 5864 5865 5866 5868 5869 5870 5871 5872 5873 5874 5875 5877 5878 5878 5879 5880 5881 5882 5883 5883 5884 5885 5886 5887 5887 5888 5889 5889 5890 5891 5892 5893 5893 5894 5894 5895 5896 5896 5897 5897 5898 5898 5898 5899 5899 5899 5900 5900
5717 5723 5728 5732 5736 5741 5745 5752 5757 5760 5764 5766 5770 5773 5776 5780 5783 5786 5789 5793 5796 5797 5797 5798 5799 5801 5804 5806 5808 5811 5814 5817 5819 5823 5826 5828 5830 5831 5833 5835 5836 5838 5841 5843 5845 5847 5848 5850 5852 5854 5855 5857 5858 5860 5861 5863 5864 5865 5866 5867 5868 5869 5870 5872 5873 5874 5875 5877 5878 5878 5879 5880 5881 5881 5882 5883 5884 5885 5886 5886 5887 5888 5888 5890 5890 5891 5892 5893 5893 5894 5894 5895 5895 5896 5896 5897 5897 5898 5898 5898 5899 5899 5900
5712 5718 5723 5727 5732 5736 5742 5748 5753 5757 5761 5764 5768 5771 5774 5778 5780 5783 5786 5791 5795 5797 5797 5797 5797 5799 5801 5803 5806 5808 5812 5814 5817 5820 5823 5825 5827 5829 5831 5833 5834 5837 5839 5841 5843 5845 5847 5848 5850 5852 5854 5855 5857 5858 5859 5861 5862 5863 5865 5866 5867 5868 5869 5870 5871 5873 5874 5875 5877 5877 5878 5878 5879 5880 5881 5882 5883 5884 5885 5885 5886 5887 5888 5888 5889 5890 5891 5892 5892 5893 5893 5894 5894 5895 5895 5896 5896 5897 5897 5898 5898 5898 5899
5708 5713 5718 5723 5728 5733 5739 5744 5749 5753 5757 5761 5765 5768 5771 5774 5777 5780 5783 5789 5795 5800 5798 5795 5794 5796 5798 5801 5803 5806 5809 5812 5815 5818 5820 5823 5825 5827 5829 5831 5833 5836 5837 5839 5841 5843 5845 5847 5848 5850 5852 5853 5855 5856 5858 5859 5861 5862 5863 5864 5866 5867 5868 5869 5870 5871 5873 5874 5875 5876 5876 5877 5878 5879 5880 5881 5882 5883 5884 5884 5885 5886 5887 5888 5888 5889 5890 5891 5891 5892 5893 5893 5893 5894 5894 5895 5895 5896 5896 5897 5897 5898 5898
5703 5709 5714 5719 5725 5730 5736 5740 5746 5751 5754 5758 5761 5765 5768 5771 5774 5777 5781 5786 5793 5798 5799 5793 5791 5793 5796 5798 5801 5803 5807 5810 5813 5815 5818 5822 5823 5824 5827 5830 5832 5834 5836 5838 5839 5841 5843 5845 5847 5848 5850 5852 5853 5855 5856 5858 5859 5860 5862 5863 5864 5865 5867 5868 5869 5870 5871 5873 5873 5874 5875 5876 5877 5878 5879 5880 5881 5882 5883 5883 5884 5885 5886 5887 5888 5888 5889 5890 5890 5891 5892 5892 5893 5893 5894 5894 5895 5895 5895 5896 5896 5897 5897
5700 5706 5711 5716 5722 5728 5732 5738 5743 5748 5751 5755 5758 5762 5765 5768 5771 5774 5778 5783 5788 5793 5796 5790 5788 5791 5793 5796 5798 5801 5804 5807 5810 5813 5815 5819 5821 5823 5825 5828 5830 5832 5834 5836 5838 5840 5841 5843 5845 5847 5848 5850 5852 5853 5855 5856 5858 5859 5860 5861 5863 5864 5865 5866 5868 5869 5870 5871 5872 5873 5874 5875 5876 5877 5878 5879 5880 5881 5882 5883 5883 5884 5885 5886 5887 5888 5888 5889 5890 5890 5891 5891 5892 5892 5893 5893 5894 5894 5895 5895 5896 5896 5896
5696 5702 5708 5713 5719 5724 5729 5735 5740 5745 5749 5753 5756 5758 5762 5765 5768 5772 5777 5781 5784 5788 5791 5787 5786 5788 5791 5794 5796 5799 5802 5805 5808 5811 5813 5816 5818 5821 5823 5826 5828 5830 5832 5834 5836 5838 5839 5841 5843 5845 5847 5848 5850 5852 5853 5854 5856 5857 5859 5860 5862 5863 5864 5865 5866 5867 5868 5870 5871 5872 5873 5874 5875 5876 5877 5878 5879 5880 5880 5881 5882 5883 5884 5885 5886 5887 5887 5888 5889 5889 5890 5890 5891 5891 5892 5892 5893 5893 5894 5894 5895 5895 5896
5692 5699 5704 5710 5716 5721 5727 5732 5737 5742 5745 5750 5753 5756 5760 5763 5766 5769 5774 5778 5781 5784 5787 5784 5783 5786 5789 5792 5794 5797 5800 5803 5806 5808 5811 5814 5816 5819 5822 5824 5826 5828 5830 5832 5833 5835 5837 5839 5841 5843 5845 5847 5848 5850 5851 5853 5854 5856 5857 5858 5860 5861 5863 5863 5865 5866 5867 5868 5869 5870 5872 5873 5874 5874 5875 5877 5878 5878 5879 5880 5881 5882 5883 5884 5885 5886 5886 5887 5888 5888 5889 5889 5890 5890 5891 5891 5892 5893 5893 5893 5894 5894 5895
5688 5695 5701 5707 5713 5719 5724 5729 5734 5739 5743 5747 5751 5754 5757 5761 5764 5767 5771 5774 5777 5780 5783 5782 5782 5784 5787 5790 5792 5795 5798 5800 5803 5806 5809 5811 5814 5817 5819 5822 5824 5826 5827 5829 5832 5833 5835 5837 5839 5841 5843 5845 5846 5848 5849 5851 5853 5854 5855 5857 5858 5860 5861 5862 5863 5864 5865 5867 5868 5869 5870 5871 5873 5873 5874 5875 5876 5877 5878 5879 5880 5881 5882 5883 5884 5885 5885 5886 5887 5887 5888 5888 5889 5889 5890 5890 5891 5892 5892 5893 5893 5893 5894
5685 5693 5699 5704 5710 5716 5721 5727 5732 5737 5741 5745 5748 5752 5755 5758 5762 5765 5768 5771 5773 5777 5783 5781 5780 5782 5785 5787 5790 5793 5795 5798 5801 5804 5806 5808 5811 5814 5817 5819 5821 5823 5825 5828 5830 5831 5833 5835 5837 5839 5841 5843 5844 5846 5848 5849 5851 5852 5853 5855 5857 5858 5859 5860 5862 5863 5864 5865 5866 5868 5869 5870 5871 5873 5873 5874 5875 5876 5877 5878 5879 5880 5881 5882 5883 5883 5884 5885 5886 5886 5887 5887 5888 5888 5889 5889 5890 5891 5891 5892 5892 5893 5893
5683 5690 5696 5702 5708 5713 5718 5724 5729 5734 5738 5743 5746 5749 5752 5756 5760 5763 5767 5770 5771 5775 5782 5780 5778 5779 5781 5784 5787 5789 5793 5796 5798 5801 5804 5806 5808 5811 5814 5817 5819 5821 5823 5825 5827 5829 5831 5833 5834 5836 5838 5840 5843 5844 5846 5847 5849 5850 5852 5853 5855 5856 5858 5859 5860 5861 5863 5864 5865 5866 5867 5868 5870 5871 5872 5873 5873 5875 5876 5877 5878 5878 5879 5881 5882 5882 5883 5884 5884 5885 5886 5886 5887 5887 5888 5888 5889 5890 5890 5891 5891 5892 5892
5680 5687 5693 5698 5704 5710 5716 5720 5726 5732 5736 5740 5744 5747 5750 5754 5758 5763 5764 5767 5769 5771 5777 5781 5778 5775 5777 5780 5783 5787 5790 5793 5796 5799 5801 5803 5806 5809 5812 5814 5816 5818 5820 5823 5824 5826 5828 5830 5832 5834 5836 5838 5840 5842 5844 5845 5847 5848 5850 5851 5853 5854 5856 5857 5859 5861 5861 5863 5864 5865 5866 5867 5868 5869 5870 5871 5873 5873 5874 5875 5876 5877 5878 5879 5880 5881 5882 5883 5883 5884 5885 5885 5886 5886 5887 5888 5888 5889 5889 5890 5890 5891 5891
5678 5684 5689 5695 5701 5707 5713 5718 5723 5729 5733 5737 5742 5745 5748 5752 5757 5760 5761 5763 5766 5769 5773 5779 5778 5774 5774 5777 5780 5783 5787 5790 5793 5797 5799 5801 5803 5806 5809 5812 5814 5816 5818 5820 5822 5823 5825 5828 5830 5832 5834 5836 5838 5840 5842 5843 5845 5846 5848 5850 5851 5853 5854 5855 5857 5858 5859 5861 5862 5863 5864 5866 5867 5868 5869 5870 5871 5872 5873 5874 5875 5876 5877 5878 5879 5880 5881 5882 5882 5883 5883 5884 5884 5885 5886 5887 5887 5888 5888 5889 5889 5890 5890
5674 5680 5687 5693 5699 5705 5711 5716 5722 5727 5731 5735 5739 5744 5747 5750 5753 5756 5759 5762 5764 5767 5772 5778 5778 5773 5773 5774 5777 5780 5783 5787 5790 5793 5796 5798 5801 5804 5807 5810 5812 5813 5816 5818 5819 5821 5823 5825 5827 5829 5832 5834 5836 5838 5839 5841 5843 5844 5846 5848 5849 5851 5852 5854 5855 5856 5858 5859 5860 5862 5863 5864 5865 5867 5868 5869 5870 5871 5872 5873 5874 5875 5876 5877 5878 5879 5880 5881 5881 5882 5883 5883 5883 5884 5885 5886 5886 5887 5887 5888 5888 5888 5889
5671 5678 5684 5691 5697 5704 5710 5716 5721 5726 5730 5733 5737 5741 5745 5748 5750 5753 5758 5762 5764 5766 5770 5778 5777 5771 5769 5771 5774 5778 5781 5784 5787 5790 5793 5796 5798 5802 5804 5807 5810 5812 5813 5815 5817 5818 5820 5822 5825 5827 5829 5832 5833 5835 5837 5839 5841 5842 5844 5846 5848 5849 5850 5852 5853 5854 5856 5858 5858 5859 5861 5863 5864 5865 5866 5867 5868 5869 5870 5872 5873 5873 5875 5876 5877 5878 5879 5879 5880 5881 5881 5882 5883 5883 5884 5884 5885 5886 5886 5887 5887 5888 5888
5670 5676 5683 5689 5695 5702 5708 5714 5719 5724 5729 5732 5735 5739 5742 5745 5748 5750 5754 5760 5762 5764 5768 5773 5774 5770 5767 5769 5772 5775 5778 5781 5784 5787 5790 5793 5796 5799 5802 5804 5807 5809 5811 5813 5814 5816 5818 5820 5822 5825 5827 5830 5832 5833 5835 5837 5838 5840 5842 5844 5845 5847 5848 5850 5851 5853 5854 5856 5857 5858 5860 5861 5862 5863 5865 5866 5867 5868 5868 5870 5871 5872 5873 5874 5876 5877 5878 5878 5879 5880 5880 5881 5881 5882 5883 5883 5884 5885 5885 5886 5886 5887 5887
5670 5675 5681 5687 5694 5700 5706 5712 5718 5723 5728 5730 5733 5737 5740 5742 5744 5747 5751 5756 5760 5763 5766 5770 5770 5768 5767 5767 5770 5773 5775 5778 5781 5784 5788 5790 5793 5796 5799 5802 5804 5806 5808 5810 5812 5813 5815 5818 5820 5823 5825 5828 5830 5831 5833 5835 5837 5838 5840 5842 5843 5845 5847 5848 5849 5851 5852 5854 5855 5857 5858 5859 5861 5862 5863 5864 5865 5866 5868 5869 5870 5871 5872 5873 5874 5875 5877 5878 5878 5879 5879 5880 5880 5881 5882 5882 5883 5883 5884 5885 5885 5886 5886
5669 5673 5679 5686 5692 5699 5706 5711 5716 5720 5726 5728 5730 5734 5737 5739 5742 5745 5748 5752 5756 5760 5762 5766 5767 5767 5767 5766 5767 5770 5773 5775 5778 5781 5784 5787 5790 5793 5796 5799 5802 5804 5806 5808 5809 5811 5813 5816 5818 5820 5823 5825 5828 5829 5831 5833 5834 5836 5838 5840 5841 5843 5844 5846 5848 5849 5850 5852 5853 5855 5856 5858 5859 5860 5862 5863 5864 5865 5866 5868 5869 5870 5871 5872 5873 5874 5875 5876 5877 5878 5878 5878 5879 5880 5880 5881 5882 5883 5883 5883 5884 5884 5885
5667 5672 5678 5684 5691 5698 5705 5710 5714 5719 5723 5725 5728 5731 5733 5736 5739 5742 5746 5749 5753 5756 5758 5762 5764 5766 5768 5767 5767 5768 5769 5772 5775 5778 5780 5783 5787 5790 5793 5796 5799 5801 5803 5805 5807 5809 5811 5813 5816 5818 5820 5823 5825 5828 5829 5831 5833 5834 5836 5838 5839 5841 5843 5845 5846 5847 5848 5850 5852 5853 5855 5856 5857 5858 5860 5861 5862 5863 5865 5866 5867 5868 5870 5871 5872 5873 5874 5875 5876 5876 5877 5878 5878 5878 5879 5880 5881 5881 5882 5883 5883 5883 5884
5667 5672 5677 5684 5691 5697 5703 5708 5712 5717 5721 5723 5725 5728 5731 5734 5737 5740 5743 5748 5751 5753 5755 5758 5761 5764 5765 5764 5765 5767 5767 5769 5772 5774 5777 5780 5783 5787 5790 5793 5796 5798 5801 5803 5805 5807 5809 5811 5813 5816 5818 5821 5823 5825 5827 5829 5831 5832 5834 5835 5837 5839 5841 5843 5844 5845 5847 5848 5850 5851 5853 5854 5856 5857 5858 5860 5861 5862 5864 5865 5866 5867 5868 5869 5870 5872 5873 5873 5874 5875 5876 5876 5877 5878 5878 5879 5879 5880 5881 5881 5882 5883 5883
5667 5673 5677 5683 5688 5694 5700 5705 5710 5714 5717 5720 5722 5725 5728 5732 5734 5738 5741 5744 5748 5751 5752 5755 5758 5761 5763 5763 5762 5762 5763 5766 5768 5771 5774 5777 5780 5783 5787 5790 5793 5796 5798 5800 5803 5805 5808 5810 5812 5813 5816 5818 5821 5823 5825 5827 5828 5830 5832 5833 5835 5837 5838 5840 5842 5843 5844 5846 5848 5849 5851 5852 5854 5855 5857 5858 5859 5860 5861 5863 5864 5866 5867 5868 5869 5870 5871 5872 5873 5874 5874 5875 5876 5876 5877 5878 5878 5879 5880 5880 5881 5881 5882
5667 5672 5677 5681 5686 5692 5698 5704 5708 5710 5714 5717 5719 5722 5725 5729 5732 5735 5738 5741 5745 5748 5750 5752 5755 5758 5761 5761 5760 5759 5761 5763 5766 5768 5771 5774 5778 5781 5783 5787 5790 5793 5795 5798 5800 5803 5805 5808 5810 5811 5813 5816 5818 5820 5822 5825 5827 5828 5830 5831 5833 5835 5836 5838 5840 5841 5843 5844 5846 5848 5849 5851 5852 5853 5855 5856 5858 5859 5860 5862 5863 5864 5865 5867 5867 5868 5870 5871 5872 5873 5873 5874 5874 5875 5876 5876 5877 5878 5878 5879 5880 5880 5880
5667 5673 5676 5680 5685 5691 5697 5702 5705 5708 5710 5714 5717 5719 5723 5726 5730 5733 5737 5739 5743 5746 5749 5750 5752 5756 5759 5760 5759 5759 5760 5762 5763 5766 5768 5772 5774 5778 5781 5784 5787 5790 5792 5795 5797 5800 5802 5805 5807 5808 5810 5813 5815 5818 5820 5822 5824 5826 5828 5829 5831 5833 5834 5836 5838 5839 5841 5843 5844 5846 5847 5849 5850 5852 5853 5854 5856 5857 5859 5860 5861 5863 5864 5865 5866 5867 5868 5869 5870 5871 5872 5873 5873 5874 5874 5875 5876 5877 5877 5878 5878 5879 5879
5669 5673 5676 5680 5685 5690 5695 5699 5703 5705 5708 5713 5716 5718 5720 5723 5727 5730 5733 5737 5740 5744 5747 5748 5750 5753 5757 5758 5758 5757 5759 5760 5762 5763 5766 5769 5772 5775 5779 5782 5784 5787 5789 5792 5794 5797 5799 5802 5804 5806 5807 5809 5812 5815 5818 5819 5822 5823 5825 5827 5829 5831 5832 5834 5835 5837 5839 5840 5842 5844 5846 5847 5848 5850 5851 5853 5854 5855 5857 5858 5859 5861 5862 5863 5864 5866 5867 5868 5869 5870 5870 5871 5872 5873 5873 5874 5875 5875 5876 5877 5877 5878 5878
5669 5673 5675 5678 5683 5688 5694 5698 5700 5703 5707 5711 5713 5716 5718 5721 5723 5727 5730 5734 5738 5741 5745 5747 5749 5751 5754 5754 5754 5755 5757 5759 5761 5763 5763 5766 5769 5772 5776 5779 5781 5784 5787 5789 5792 5794 5796 5799 5802 5803 5804 5806 5809 5813 5815 5817 5819 5821 5823 5825 5827 5828 5830 5832 5833 5835 5837 5838 5840 5842 5843 5845 5847 5848 5849 5851 5852 5853 5855 5857 5858 5859 5860 5861 5863 5864 5865 5866 5867 5868 5869 5870 5871 5871 5872 5873 5873 5874 5875 5875 5876 5877 5877
5669 5673 5677 5678 5681 5687 5692 5695 5698 5701 5704 5708 5711 5714 5717 5719 5721 5723 5727 5731 5735 5740 5744 5746 5748 5749 5751 5751 5752 5753 5756 5757 5761 5763 5761 5764 5767 5769 5772 5775 5778 5782 5784 5786 5789 5791 5793 5797 5799 5800 5802 5804 5806 5809 5812 5815 5817 5819 5821 5823 5824 5826 5828 5829 5831 5833 5834 5836 5838 5839 5841 5843 5845 5846 5848 5849 5850 5852 5853 5854 5856 5857 5858 5860 5861 5862 5863 5864 5866 5867 5868 5868 5869 5870 5871 5871 5872 5873 5873 5874 5875 5875 5876
5669 5672 5677 5678 5682 5686 5688 5692 5695 5697 5700 5704 5708 5712 5716 5718 5720 5721 5724 5728 5733 5738 5743 5745 5746 5747 5748 5749 5750 5752 5754 5754 5758 5760 5759 5761 5763 5766 5769 5772 5775 5778 5781 5783 5786 5788 5791 5793 5796 5798 5799 5802 5804 5807 5809 5812 5814 5817 5818 5820 5822 5824 5826 5827 5829 5831 5833 5834 5836 5838 5839 5841 5843 5844 5846 5847 5848 5850 5851 5853 5854 5855 5857 5858 5859 5860 5861 5863 5863 5865 5866 5867 5868 5868 5869 5870 5871 5871 5872 5873 5873 5874 5874
5668 5671 5676 5679 5683 5685 5687 5690 5692 5693 5696 5701 5705 5709 5713 5717 5719 5720 5722 5725 5729 5735 5741 5743 5744 5746 5747 5748 5749 5750 5751 5752 5754 5756 5758 5759 5761 5763 5765 5768 5772 5775 5778 5780 5783 5785 5788 5790 5792 5794 5797 5799 5801 5804 5807 5809 5812 5814 5816 5818 5820 5822 5823 5825 5827 5829 5831 5832 5834 5836 5838 5839 5841 5843 5844 5845 5847 5848 5849 5851 5852 5853 5855 5856 5857 5858 5860 5861 5862 5863 5864 5865 5866 5867 5868 5868 5869 5870 5870 5871 5872 5872 5873
5667 5671 5676 5679 5682 5684 5687 5688 5690 5691 5694 5698 5703 5707 5710 5714 5717 5718 5719 5722 5726 5732 5739 5742 5743 5744 5746 5747 5747 5747 5749 5750 5752 5754 5756 5757 5758 5760 5762 5765 5768 5772 5775 5777 5779 5782 5784 5787 5789 5791 5793 5795 5798 5801 5804 5807 5809 5811 5813 5815 5817 5819 5821 5823 5825 5827 5828 5830 5832 5834 5836 5838 5839 5840 5842 5844 5845 5846 5848 5849 5850 5851 5853 5854 5856 5857 5858 5859 5860 5861 5862 5863 5864 5865 5866 5867 5868 5868 5869 5869 5870 5871 5871
5666 5670 5675 5678 5681 5684 5685 5687 5689 5691 5693 5697 5701 5704 5707 5711 5714 5716 5718 5721 5724 5729 5735 5739 5741 5743 5745 5746 5746 5745 5747 5748 5751 5753 5754 5755 5756 5758 5760 5763 5765 5768 5771 5774 5776 5779 5782 5784 5786 5788 5790 5793 5795 5798 5801 5804 5806 5808 5811 5813 5815 5817 5819 5821 5823 5825 5827 5828 5830 5832 5834 5836 5838 5838 5840 5842 5844 5845 5845 5847 5848 5849 5851 5852 5854 5855 5856 5857 5858 5859 5861 5862 5863 5864 5864 5865 5866 5867 5867 5868 5869 5869 5870
5666 5669 5673 5678 5680 5682 5683 5685 5687 5689 5690 5693 5698 5702 5704 5708 5711 5713 5716 5719 5722 5726 5731 5735 5738 5741 5743 5744 5744 5743 5743 5745 5748 5750 5753 5753 5755 5756 5758 5760 5763 5766 5768 5771 5773 5776 5779 5781 5783 5785 5788 5790 5793 5795 5798 5801 5804 5806 5808 5810 5813 5815 5817 5819 5821 5823 5825 5826 5828 5830 5833 5835 5836 5837 5838 5841 5843 5843 5844 5844 5846 5847 5849 5850 5852 5853 5854 5856 5857 5858 5859 5860 5861 5862 5863 5863 5864 5865 5866 5866 5867 5868 5868
5665 5668 5673 5678 5680 5680 5682 5683 5685 5686 5687 5690 5695 5698 5702 5705 5708 5711 5713 5716 5719 5722 5726 5732 5736 5739 5741 5742 5742 5741 5740 5742 5745 5748 5750 5752 5753 5755 5757 5759 5761 5764 5766 5768 5771 5774 5776 5778 5780 5783 5785 5788 5790 5793 5795 5798 5802 5804 5806 5808 5810 5813 5814 5817 5819 5821 5823 5824 5826 5828 5830 5833 5835 5837 5838 5840 5842 5842 5842 5842 5843 5845 5847 5848 5850 5851 5852 5854 5855 5856 5857 5858 5859 5860 5861 5862 5863 5863 5864 5865 5865 5866 5867
5666 5669 5673 5678 5681 5681 5682 5683 5684 5684 5686 5688 5692 5696 5699 5703 5706 5709 5710 5713 5716 5719 5723 5728 5733 5736 5738 5737 5737 5737 5737 5740 5743 5746 5748 5750 5752 5755 5757 5758 5760 5762 5764 5767 5769 5772 5774 5776 5778 5781 5783 5785 5788 5790 5793 5796 5799 5802 5804 5806 5808 5810 5812 5814 5816 5818 5820 5822 5823 5825 5827 5828 5831 5834 5836 5838 5839 5839 5840 5840 5841 5843 5844 5846 5848 5849 5850 5852 5853 5854 5855 5856 5857 5858 5859 5860 5861 5861 5862 5863 5864 5864 5865
5667 5669 5673 5678 5681 5681 5681 5683 5684 5684 5685 5687 5690 5693 5698 5701 5704 5707 5708 5710 5712 5716 5721 5724 5728 5732 5734 5734 5733 5734 5735 5738 5741 5744 5746 5747 5749 5752 5754 5756 5758 5760 5763 5765 5767 5769 5772 5774 5776 5778 5780 5783 5785 5788 5791 5794 5796 5799 5801 5803 5805 5808 5809 5811 5813 5815 5817 5819 5820 5822 5824 5826 5827 5829 5831 5833 5835 5836 5837 5838 5839 5841 5843 5844 5846 5847 5848 5850 5851 5852 5853 5854 5855 5856 5857 5858 5858 5859 5860 5861 5862 5863 5863
5668 5669 5673 5678 5680 5681 5681 5683 5684 5684 5684 5686 5688 5692 5696 5699 5701 5704 5706 5708 5710 5714 5719 5721 5723 5727 5729 5731 5731 5731 5733 5736 5739 5741 5743 5745 5747 5749 5751 5753 5756 5758 5760 5763 5765 5767 5769 5771 5773 5775 5778 5780 5783 5785 5788 5791 5793 5796 5798 5800 5803 5805 5807 5809 5811 5812 5814 5816 5818 5819 5821 5823 5825 5827 5829 5830 5832 5833 5834 5836 5837 5839 5841 5842 5844 5845 5846 5848 5849 5850 5851 5853 5853 5854 5855 5856 5857 5858 5858 5859 5860 5861 5862
5667 5669 5672 5676 5679 5681 5682 5683 5683 5683 5683 5684 5687 5690 5693 5696 5699 5701 5703 5706 5708 5712 5716 5719 5720 5722 5725 5728 5729 5730 5731 5734 5737 5739 5740 5743 5745 5748 5749 5751 5753 5755 5757 5760 5762 5764 5766 5768 5770 5773 5775 5777 5780 5782 5784 5787 5790 5793 5795 5798 5800 5802 5804 5806 5808 5809 5811 5813 5815 5817 5819 5821 5823 5825 5827 5828 5828 5830 5831 5833 5835 5837 5839 5840 5842 5843 5844 5846 5847 5848 5849 5850 5851 5852 5853 5854 5855 5856 5857 5858 5858 5859 5860
5667 5669 5671 5674 5677 5680 5681 5682 5683 5683 5683 5684 5685 5688 5691 5694 5697 5699 5701 5703 5706 5710 5714 5718 5718 5718 5721 5725 5728 5729 5730 5732 5735 5737 5738 5741 5743 5744 5746 5747 5749 5751 5753 5757 5759 5761 5763 5766 5768 5770 5772 5774 5777 5779 5781 5784 5787 5789 5792 5794 5797 5799 5801 5803 5804 5806 5808 5811 5813 5814 5817 5819 5821 5823 5824 5825 5827 5828 5829 5831 5833 5834 5836 5838 5839 5841 5842 5843 5845 5846 5847 5848 5849 5850 5851 5852 5853 5854 5855 5856 5857 5857 5858
5668 5669 5670 5672 5674 5677 5679 5681 5682 5683 5683 5684 5685 5686 5689 5692 5695 5697 5699 5701 5705 5709 5713 5716 5717 5716 5717 5721 5724 5726 5728 5732 5734 5734 5735 5737 5738 5740 5742 5744 5747 5749 5753 5755 5756 5758 5760 5762 5765 5767 5770 5772 5773 5776 5778 5781 5784 5787 5789 5792 5794 5796 5798 5800 5802 5803 5805 5808 5810 5813 5814 5817 5819 5821 5822 5824 5825 5826 5828 5829 5831 5832 5834 5836 5837 5838 5840 5841 5843 5844 5845 5846 5847 5848 5849 5850 5851 5852 5853 5853 5854 5855 5856
5668 5669 5669 5670 5672 5674 5676 5677 5680 5682 5682 5683 5684 5686 5688 5690 5693 5695 5697 5700 5703 5708 5711 5714 5715 5715 5715 5718 5721 5724 5726 5730 5731 5731 5731 5733 5736 5738 5739 5743 5746 5749 5752 5752 5753 5754 5757 5761 5763 5765 5767 5769 5771 5773 5776 5779 5781 5784 5787 5789 5792 5794 5796 5797 5799 5801 5803 5805 5808 5811 5813 5814 5816 5819 5820 5822 5823 5824 5825 5827 5828 5830 5832 5833 5835 5836 5838 5839 5840 5842 5843 5844 5845 5846 5847 5848 5849 5850 5851 5851 5852 5853 5854
5667 5668 5668 5670 5671 5672 5673 5676 5678 5680 5682 5684 5685 5685 5686 5688 5690 5693 5696 5699 5703 5708 5711 5713 5713 5714 5714 5715 5718 5723 5725 5727 5728 5729 5730 5732 5735 5737 5738 5740 5742 5744 5746 5748 5750 5753 5757 5759 5761 5762 5764 5766 5768 5771 5773 5776 5779 5782 5784 5787 5789 5791 5793 5795 5797 5799 5801 5803 5805 5808 5810 5813 5814 5816 5818 5819 5821 5822 5823 5824 5826 5828 5829 5831 5833 5834 5835 5837 5838 5839 5840 5842 5843 5844 5845 5846 5847 5848 5848 5849 5850 5851 5851
5664 5666 5667 5669 5670 5670 5671 5674 5676 5678 5681 5683 5684 5684 5685 5686 5689 5692 5696 5699 5703 5707 5709 5710 5711 5713 5713 5714 5716 5719 5723 5725 5725 5726 5728 5732 5733 5733 5734 5736 5738 5740 5743 5745 5749 5752 5754 5756 5757 5758 5760 5764 5767 5768 5771 5774 5777 5779 5781 5784 5786 5789 5791 5793 5795 5797 5799 5801 5803 5805 5807 5810 5812 5814 5815 5817 5818 5819 5821 5823 5824 5826 5827 5829 5830 5831 5833 5834 5835 5837 5838 5839 5840 5842 5843 5843 5844 5845 5846 5847 5848 5848 5849
5662 5664 5666 5666 5667 5668 5670 5672 5674 5676 5678 5680 5683 5684 5684 5685 5688 5692 5696 5699 5702 5704 5706 5708 5709 5711 5712 5713 5715 5718 5721 5723 5723 5724 5727 5731 5731 5729 5729 5733 5737 5741 5744 5745 5747 5749 5750 5752 5753 5754 5758 5762 5764 5767 5769 5772 5774 5776 5779 5781 5784 5786 5788 5790 5792 5794 5797 5799 5801 5803 5805 5807 5810 5812 5814 5815 5816 5817 5819 5820 5822 5823 5824 5826 5828 5829 5830 5832 5833 5834 5836 5837 5838 5839 5840 5841 5842 5843 5843 5844 5845 5846 5847
5661 5662 5663 5663 5664 5666 5668 5670 5672 5675 5677 5679 5682 5683 5683 5684 5688 5691 5694 5698 5700 5703 5704 5706 5707 5708 5709 5711 5714 5717 5719 5720 5721 5723 5725 5728 5728 5726 5726 5729 5733 5735 5738 5740 5742 5745 5747 5749 5751 5753 5757 5759 5762 5764 5767 5769 5772 5774 5776 5778 5781 5783 5785 5788 5790 5792 5794 5796 5798 5801 5803 5805 5807 5809 5811 5812 5813 5815 5816 5818 5820 5821 5823 5824 5825 5826 5828 5829 5830 5832 5833 5834 5835 5837 5838 5838 5839 5840 5841 5842 5842 5843 5845
5660 5661 5662 5662 5663 5665 5667 5668 5671 5673 5675 5677 5680 5682 5683 5683 5686 5690 5693 5696 5698 5701 5702 5703 5704 5706 5707 5709 5712 5715 5717 5718 5719 5720 5722 5723 5723 5723 5724 5727 5729 5731 5733 5735 5738 5742 5745 5747 5749 5752 5755 5757 5759 5762 5765 5767 5769 5772 5774 5776 5778 5780 5782 5784 5787 5789 5791 5793 5796 5798 5800 5803 5805 5806 5808 5809 5811 5812 5814 5816 5817 5819 5820 5821 5823 5824 5825 5826 5828 5829 5830 5832 5833 5834 5835 5836 5837 5838 5838 5839 5840 5841 5842
5658 5660 5661 5662 5663 5664 5666 5668 5670 5673 5673 5675 5678 5680 5681 5683 5686 5689 5691 5694 5697 5698 5700 5702 5703 5704 5705 5707 5708 5710 5712 5713 5716 5718 5719 5720 5721 5723 5724 5725 5727 5729 5732 5734 5737 5740 5742 5744 5747 5750 5752 5755 5757 5760 5762 5764 5767 5769 5771 5773 5775 5777 5779 5782 5783 5786 5788 5790 5793 5796 5798 5800 5802 5803 5805 5807 5808 5810 5811 5813 5814 5816 5817 5818 5819 5821 5822 5824 5825 5827 5828 5829 5830 5831 5832 5833 5834 5835 5836 5837 5838 5838 5840